This is the latest recevied weather packets stored in our database for station/object F8BMG-Wx. If no packets are shown the sender has not sent any weather packets the latest 10 day(s).
| Time | Temp. | Humidity | Pressure | Rain* | Wind** | Luminosity | Snow |
|---|---|---|---|---|---|---|---|
| 1777823503 | 20° C | 99% | 1010.9 hPa | 0 mm | - | - | - |
| 1777823191 | 20° C | 99% | 1010.9 hPa | 0 mm | - | - | - |
| 1777822888 | 20° C | 99% | 1010.9 hPa | 0 mm | - | - | - |
| 1777822583 | 20° C | 99% | 1011 hPa | 0 mm | - | - | - |
| 1777822279 | 20.56° C | 99% | 1011 hPa | 0 mm | - | - | - |
| 1777821976 | 20.56° C | 99% | 1011 hPa | 0 mm | - | - | - |
| 1777821678 | 21.11° C | 95% | 1011.1 hPa | 0 mm | - | - | - |
| 1777821366 | 21.11° C | 32% | 1011 hPa | 0 mm | - | - | - |
| 1777821063 | 21.11° C | 47% | 1011 hPa | 0 mm | - | - | - |
| 1777820759 | 21.11° C | 51% | 1011.1 hPa | 0 mm | - | - | - |
| 1777820456 | 21.67° C | 43% | 1011.3 hPa | 0 mm | - | - | - |
| 1777820152 | 21.67° C | 22% | 1011.3 hPa | 0 mm | - | - | - |
| 1777819854 | 21.67° C | 25% | 1011.4 hPa | 0 mm | - | - | - |
| 1777819543 | 22.22° C | 18% | 1011.5 hPa | 0 mm | - | - | - |
| 1777819239 | 21.67° C | 11% | 1011.5 hPa | 0 mm | - | - | - |
| 1777818935 | 21.67° C | 40% | 1011.5 hPa | 0 mm | - | - | - |
| 1777818631 | 21.67° C | 17% | 1011.7 hPa | 0 mm | - | - | - |
| 1777818328 | 21.67° C | 22% | 1011.8 hPa | 0 mm | - | - | - |
| 1777818030 | 21.67° C | - | - | 0 mm | - | - | - |
| 1777817718 | 21.67° C | 28% | 1011.9 hPa | 0 mm | - | - | - |
| 1777817415 | 21.67° C | 13% | 1012 hPa | 0 mm | - | - | - |
| 1777817111 | 21.67° C | 39% | 1012.1 hPa | 0 mm | - | - | - |
| 1777816807 | 21.67° C | 23% | 1012.2 hPa | 0 mm | - | - | - |
| 1777816504 | 21.67° C | 62% | 1012.3 hPa | 0 mm | - | - | - |
| 1777816206 | 21.67° C | 45% | 1012.3 hPa | 0 mm | - | - | - |
* Rain latest hour (hover to see other rain measurements)
** Current wind speed in m/s (hover to see current wind gust speed)